Satellite: NO-61
Catalog number: 29664
Epoch time:      07087.61705875
Element set:    0118
Inclination:      051.6329 deg
RA of node:       155.5110 deg
Eccentricity:    0.0015979
Arg of perigee:   028.3749 deg
Mean anomaly:     331.8123 deg
Mean motion:   15.86544882 rev/day
Decay rate:     3.3336e-04 rev/day^2
Epoch rev:           01534
Checksum:              324

/EX
SB KEPS @ AMSAT  $ORB07088.W
Orbital Elements  07088.WEATHER

HR AMSAT ORBITAL ELEMENTS FOR WEATHER SATELLITES
FROM WA5QGD FORT WORTH,TX March 29, 2007
Send SUBSCRIBE KEPS/UNSUBSCRIBE KEPS to majordomo at amsat.org only
BID: ORB07088.W
TO ALL RADIO AMATEURS BT

Satellite: NOAA-10
Catalog number: 16969
Epoch time:      07088.10768995
Element set:     601
Inclination:      098.7512 deg
RA of node:       105.2240 deg
Eccentricity:    0.0013079
Arg of perigee:   043.9714 deg
Mean anomaly:     316.2498 deg
Mean motion:   14.27320083 rev/day
Decay rate:      -1.10e-06 rev/day^2
Epoch rev:            6780
Checksum:              298

Satellite: NOAA-11
Catalog number: 19531
Epoch time:      07088.07793098
Element set:     599
Inclination:      098.8095 deg
RA of node:       178.2427 deg
Eccentricity:    0.0010930
Arg of perigee:   258.8374 deg
Mean anomaly:     101.1563 deg
Mean motion:   14.14841050 rev/day
Decay rate:       2.52e-06 rev/day^2
Epoch rev:           95482
Checksum:              322

Satellite: NOAA-12
Catalog number: 21263
Epoch time:      07088.07691528
Element set:      92
Inclination:      098.7524 deg
RA of node:       085.4566 deg
Eccentricity:    0.0012525
Arg of perigee:   343.9394 deg
Mean anomaly:     016.1363 deg
Mean motion:   14.25525182 rev/day
Decay rate:       -1.9e-07 rev/day^2
Epoch rev:           82483
Checksum:              310

Satellite: MET-3/5
Catalog number: 21655
Epoch time:      07087.94854827
Element set:    0275
Inclination:      082.5518 deg
RA of node:       059.6249 deg
Eccentricity:    0.0014451
Arg of perigee:   051.4895 deg
Mean anomaly:     308.7521 deg
Mean motion:   13.17010665 rev/day
Decay rate:        5.1e-07 rev/day^2
Epoch rev:           75084
Checksum:              318

Satellite: MET-2/21
Catalog number: 22782
Epoch time:      07087.59318645
Element set:    0786
Inclination:      082.5440 deg
RA of node:       105.8588 deg
Eccentricity:    0.0023992
Arg of perigee:   101.3630 deg
Mean anomaly:     259.0225 deg
Mean motion:   13.83616148 rev/day
Decay rate:      .00000000 rev/day^2
Epoch rev:           68537
Checksum:              305

Satellite: OKEAN-4
Catalog number: 23317
Epoch time:      07088.60320830
Element set:     223
Inclination:      082.5420 deg
RA of node:       010.7786 deg
Eccentricity:    0.0022672
Arg of perigee:   150.9507 deg
Mean anomaly:     209.2972 deg
Mean motion:   14.82482655 rev/day
Decay rate:       1.30e-06 rev/day^2
Epoch rev:           67226
Checksum:              281

Satellite: NOAA-14
Catalog number: 23455
Epoch time:      07088.31615110
Element set:     579
Inclination:      098.9971 deg
RA of node:       154.0515 deg
Eccentricity:    0.0008663
Arg of perigee:   328.8912 deg
Mean anomaly:     031.1800 deg
Mean motion:   14.13707579 rev/day
Decay rate:        9.5e-07 rev/day^2
Epoch rev:           63135
Checksum:              306

Satellite: SICH-1
Catalog number: 23657
Epoch time:      07087.84629016
Element set:    0026
Inclination:      082.5300 deg
RA of node:       152.4212 deg
Eccentricity:    0.0025017
Arg of perigee:   144.1353 deg
Mean anomaly:     216.1545 deg
Mean motion:   14.81465577 rev/day
Decay rate:       2.97e-06 rev/day^2
Epoch rev:           62413
Checksum:              277

Satellite: NOAA-15
Catalog number: 25338
Epoch time:      07088.03570292
Element set:     937
Inclination:      098.5308 deg
RA of node:       086.9836 deg
Eccentricity:    0.0009741
Arg of perigee:   262.8081 deg
Mean anomaly:     097.2010 deg
Mean motion:   14.24632772 rev/day
Decay rate:       1.01e-06 rev/day^2
Epoch rev:           46127
Checksum:              307

Satellite: RESURS
Catalog number: 25394
Epoch time:      07087.76288794
Element set:    0625
Inclination:      098.4504 deg
RA of node:       145.4433 deg
Eccentricity:    0.0002432
Arg of perigee:   066.1003 deg
Mean anomaly:     294.0431 deg
Mean motion:   14.24131038 rev/day
Decay rate:       -1.0e-08 rev/day^2
Epoch rev:           45290
Checksum:              273

Satellite: FENGYUN1
Catalog number: 25730
Epoch time:      07088.80174616
Element set:      37
Inclination:      098.6868 deg
RA of node:       075.6889 deg
Eccentricity:    0.0022574
Arg of perigee:   354.8026 deg
Mean anomaly:     005.2913 deg
Mean motion:   14.07451486 rev/day
Decay rate:       5.54e-06 rev/day^2
Epoch rev:           40629
Checksum:              324

Satellite: OKEAN-0
Catalog number: 25860
Epoch time:      07087.62370944
Element set:      13
Inclination:      097.7323 deg
RA of node:       093.6372 deg
Eccentricity:    0.0000630
Arg of perigee:   047.1466 deg
Mean anomaly:     312.9790 deg
Mean motion:   14.73439613 rev/day
Decay rate:        7.5e-07 rev/day^2
Epoch rev:           41363
Checksum:              292

Satellite: NOAA-16
Catalog number: 26536
Epoch time:      07088.07039979
Element set:     351
Inclination:      099.1108 deg
RA of node:       063.6463 deg
Eccentricity:    0.0011025
Arg of perigee:   042.0239 deg
Mean anomaly:     318.1800 deg
Mean motion:   14.12413884 rev/day
Decay rate:        5.9e-07 rev/day^2
Epoch rev:           33579
Checksum:              299

Satellite: NOAA-17
Catalog number: 27453
Epoch time:      07088.33982482
Element set:     361
Inclination:      098.5853 deg
RA of node:       159.5379 deg
Eccentricity:    0.0011086
Arg of perigee:   329.7703 deg
Mean anomaly:     030.2844 deg
Mean motion:   14.23864649 rev/day
Decay rate:        9.0e-08 rev/day^2
Epoch rev:           24735
Checksum:              335

Satellite: NOAA-18
Catalog number: 28654
Epoch time:      07088.26891837
Element set:     898
Inclination:      098.8221 deg
RA of node:       030.9187 deg
Eccentricity:    0.0014887
Arg of perigee:   132.3283 deg
Mean anomaly:     227.9170 deg
Mean motion:   14.11048207 rev/day
Decay rate:        6.0e-07 rev/day^2
Epoch rev:            9558
Checksum:              334

/EX
SB KEPS @ AMSAT  $ORB07088.M
Orbital Elements  07088.MISC

HR AMSAT ORBITAL ELEMENTS FOR MANNED AND MISCELLANEOUS SATELLITES
FROM WA5QGD FORT WORTH,TX March 29, 2007
Send SUBSCRIBE KEPS/UNSUBSCRIBE KEPS to majordomo at amsat.org only
BID: ORB07088.M
TO ALL RADIO AMATEURS BT

Satellite: HUBBLE
Catalog number: 20580
Epoch time:      07087.84483488
Element set:     839
Inclination:      028.4685 deg
RA of node:       354.0115 deg
Eccentricity:    0.0003499
Arg of perigee:   321.7661 deg
Mean anomaly:     038.2691 deg
Mean motion:   15.00212271 rev/day
Decay rate:       4.71e-06 rev/day^2
Epoch rev:           72788
Checksum:              310

Satellite: UARS
Catalog number: 21701
Epoch time:      07087.93643943
Element set:    0048
Inclination:      056.9758 deg
RA of node:       301.9982 deg
Eccentricity:    0.0097917
Arg of perigee:   040.4372 deg
Mean anomaly:     320.3906 deg
Mean motion:   15.47330429 rev/day
Decay rate:      9.135e-05 rev/day^2
Epoch rev:           85332
Checksum:              319

Satellite: PO-34
Catalog number: 25520
Epoch time:      07087.84705482
Element set:    0709
Inclination:      028.4598 deg
RA of node:       286.4455 deg
Eccentricity:    0.0005604
Arg of perigee:   103.6294 deg
Mean anomaly:     256.4930 deg
Mean motion:   15.16956832 rev/day
Decay rate:       6.83e-06 rev/day^2
Epoch rev:           46531
Checksum:              328

Satellite: ISS
Catalog number: 25544
Epoch time:      07088.78969064
Element set:     921
Inclination:      051.6326 deg
RA of node:       154.2207 deg
Eccentricity:    0.0015461
Arg of perigee:   007.3447 deg
Mean anomaly:     097.5434 deg
Mean motion:   15.78203197 rev/day
Decay rate:     2.9266e-04 rev/day^2
Epoch rev:           47823
Checksum:              321

Satellite: OO-38
Catalog number: 26063
Epoch time:      07088.51926897
Element set:     874
Inclination:      100.2254 deg
RA of node:       076.4320 deg
Eccentricity:    0.0037225
Arg of perigee:   024.3484 deg
Mean anomaly:     335.9442 deg
Mean motion:   14.35800281 rev/day
Decay rate:        2.8e-07 rev/day^2
Epoch rev:           37561
Checksum:              302

Satellite: NO-45
Catalog number: 26932
Epoch time:      07088.81573648
Element set:     560
Inclination:      067.0517 deg
RA of node:       351.7007 deg
Eccentricity:    0.0005852
Arg of perigee:   291.6587 deg
Mean anomaly:     068.3884 deg
Mean motion:   14.29552454 rev/day
Decay rate:       -3.8e-07 rev/day^2
Epoch rev:           28679
Checksum:              347

Satellite: UWE-1
Catalog number: 28892
Epoch time:      07088.27365978
Element set:     711
Inclination:      098.1385 deg
RA of node:       346.4698 deg
Eccentricity:    0.0017751
Arg of perigee:   005.3440 deg
Mean anomaly:     354.7941 deg
Mean motion:   14.59480832 rev/day
Decay rate:       1.94e-06 rev/day^2
Epoch rev:            7555
Checksum:              343

Satellite: CO-58
Catalog number: 28895
Epoch time:      07088.25497726
Element set:     691
Inclination:      098.1417 deg
RA of node:       346.6335 deg
Eccentricity:    0.0018286
Arg of perigee:   005.4732 deg
Mean anomaly:     354.6633 deg
Mean motion:   14.59529759 rev/day
Decay rate:        7.0e-07 rev/day^2
Epoch rev:            7543
Checksum:              355

